World > North America > United States > Ohio

Mount Pisgah, Ohio Regional Weather

Lat: 38.98N, Lon: 84.23W
Wx Zone: OHZ078Web Search

Ads allow us to feed your daily addiction for the world's greatest weather information. We're determined to offer quality sponsors, in the least annoying way possible.

Feedback


°F Click to change Mount Pisgah hourly weather to Imperial units.Click to change Mount Pisgah hourly weather to Metric units. °C
Mount Pisgah Weather Map
UTC Time: 5/6/2021, 01:41
Your Time:

Mount Pisgah, OH Regional Weather

Expires:202105060200;;659505
ASUS41 KCLE 060112
RWRCLE
OHIO REGIONAL WEATHER ROUNDUP
NATIONAL WEATHER SERVICE WILMINGTON, OH
900 PM EDT WED MAY 05 2021

NOTE: "FAIR" INDICATES FEW OR NO CLOUDS BELOW 12,000 FEET WITH NO
SIGNIFICANT WEATHER AND/OR OBSTRUCTIONS TO VISIBILITY.


OHZ042-051>053-060>062-070>072-077>081-060200-
  SOUTHWEST OHIO
  
CITY           SKY/WX    TMP DP  RH WIND       PRES   REMARKS
CINC-COVINGTON FAIR      54  34  46 NW7       30.11R                  
CINC-LUNKEN    FAIR      55  36  48 NW5       30.12R                  
HAMILTON       FAIR      50  44  80 N3        30.12R                  
DAYTON         FAIR      53  35  50 N5        30.12R                  
WRIGHT-PAT AFB MOCLDY    54  36  50 CALM      30.11R HAZE             
DAYTON GENERAL FAIR      54  36  50 N5        30.10R                  
WILMINGTON     FAIR      51  38  60 N6        30.10R                  
$$


SKY/WX - Weather  TMP - Temperature  DP - Dew Point  RH - Relative Humidity
WIND - Wind Direction/Speed PRES - Barometric Pressure VSB - Visibility
WCI - Wind Chill Index E13G22 Wind - East Wind 13 mph/Gusts of 22 mph